Location: Brachstadt
(48.6975°N, 10.6755°E)
Time: 06:26:42
(UTC+00:00)

CENTAUR R/B - Pass Details

Date: 18 September 2020
Orbit: 755 x 1433 km, 63.4° (Epoch: 02 October)

Event Time Altitude Azimuth Distance (km) Brightness Sun altitude
Rises 19:23:43 0° 317° (NW) 4,084 7.0 -20.0°
Reaches altitude 10° 19:26:20 10° 319° (NW) 3,204 6.2 -20.4°
Maximum altitude 19:34:19 80° 47° (NE) 1,380 3.1 -21.5°
Enters shadow 19:38:32 35° 130° (SE) 2,108 3.7 -22.1°
